Location: Wingville
(42.9917°N, 90.4915°W)
Time: 14:43:22
(UTC+00:00)

EO-79 - Pass Details

Date: 03 July 2022
Orbit: 588 x 603 km, 98.0° (Epoch: 18 August)

Event Time Altitude Azimuth Distance (km) Brightness Sun altitude
Rises 07:43:52 0° 13° (NNE) 2,857 ? -20.3°
Reaches altitude 10° 07:46:03 10° 15° (NNE) 1,952 ? -20.2°
Maximum altitude 07:50:17 83° 102° (ESE) 614 ? -19.8°
Enters shadow 07:51:26 48° 185° (S) 790 ? -19.8°
